Miscellaneous Local Product
Issued by NWS North Platte, NE

Home | Current Version | Previous Version | Text Only | Print | Product List | Glossary On
Versions: 1 2 3 4 5 6 7 8 9 10 11 12 13 14 15 16 17 18 19 20 21 22 23 24 25 26 27 28 29 30 31 32 33 34 35 36 37 38 39 40 41 42 43 44 45 46 47 48 49 50
000
AXUS43 KLBF 281010
MISLBF


WESTERN AND NORTH CENTRAL NEBRASKA HOURLY WEATHER ROUNDUP
NATIONAL WEATHER SERVICE NORTH PLATTE NE
500 AM CDT WED SEP 28 2016

NOTE: "FAIR" INDICATES FEW OR NO CLOUDS BELOW 12,000 FEET WITH NO
SIGNIFICANT WEATHER AND/OR OBSTRUCTIONS TO VISIBILITY.

NOTE: STATIONS NOT REPORTING VARIABLES SUCH AS SKY/WEATHER OR
PRESSURE ARE PROVIDED BY RAWS AND APRS NETWORKS AND ARE NOT UNDER
NATIONAL WEATHER SERVICE QUALITY CONTROL.

...OBSERVATIONS IN AND NEAR THE EASTERN PANHANDLE OF NEBRASKA...

CITY           SKY/WX    TMP DP  RH WIND       PRES   REMARKS
PINE RIDGE     CLEAR     37  36  96 E3        30.16R
CHADRON        CLEAR     46  41  82 W3        30.17R
ALLIANCE       CLEAR     42  39  89 W8        30.18R
SIDNEY         CLEAR     43  37  79 NW8       30.20R
CRESCENT LAKE    N/A     47  41  81 N6          N/A
$$

...OBSERVATIONS IN NORTHERN NEBRASKA AND FAR SOUTHERN SOUTH DAKOTA...

CITY           SKY/WX    TMP DP  RH WIND       PRES   REMARKS
WINNER         FAIR      50  42  74 CALM      30.12R
VALENTINE      CLEAR     42  38  85 NW6       30.13R
THEDFORD       CLEAR     45  42  88 CALM      30.13R
AINSWORTH      CLEAR     45  42  90 NW5       30.12R
O`NEILL        CLEAR     45  41  87 N7        30.10R
ORD            CLEAR     47  42  83 N7        30.06R
BROKEN BOW     CLEAR     44  40  85 N5        30.08R
BUTTE            N/A     47  37  69 NE3         N/A
HALSEY           N/A     48  41  78 CALM        N/A
EWING            N/A     47  41  81 CALM        N/A
$$

...OBSERVATIONS IN SOUTHWEST NEBRASKA AND FAR NORTHEAST COLORADO...

CITY           SKY/WX    TMP DP  RH WIND       PRES   REMARKS
WRAY           FAIR      43  34  70 MISG      30.15R
HOLYOKE        FAIR      54  37  54 NW8       30.16R
IMPERIAL       CLEAR     49  38  65 NW5       30.13R
OGALLALA       CLEAR     43  40  88 W5        30.14R
NORTH PLATTE   CLEAR     42  39  89 W3        30.11R
MCCOOK         CLEAR     46  41  82 W6        30.08R
LEXINGTON      CLEAR     45  41  88 W5        30.07R
STAPLETON        N/A     48  41  77 CALM        N/A
GOTHENBURG       N/A     50  40  69 CALM        N/A
CALLAWAY         N/A     43  42  95 N6          N/A
$$

...OBSERVATIONS IN CENTRAL LINCOLN COUNTY AREA...

CITY           SKY/WX    TMP DP  RH WIND       PRES   REMARKS
N.P. AIRPORT   CLEAR     42  39  89 W3        30.11R
N.P. DOWNTOWN    N/A     48  43  82 CALM        N/A
N.P. SOUTHEAST   N/A     49  43  79 CALM        N/A
N.P. HILLCREST   N/A     48  42  79 NW3         N/A
$$

...SOME OBSERVATIONS FROM AROUND THE REGION...

CITY           SKY/WX    TMP DP  RH WIND       PRES   REMARKS
DENVER         CLEAR     53  29  39 SW10      30.25R
LARAMIE        CLOUDY    39  30  70 S7        30.36S WCI  34
CHEYENNE       CLOUDY    47  31  53 W10       30.30R
SCOTTSBLUFF    CLEAR     49  40  71 NW9       30.20R
RAPID CITY     CLEAR     54  40  59 NW10      30.15R
BISMARCK       CLOUDY    38  36  92 E8        30.16R WCI  32
PIERRE         CLEAR     42  36  79 NE7       30.12R
SIOUX FALLS    MOCLDY    47  42  83 N8        30.07R
OMAHA          CLEAR     48  43  82 N7        29.99R
GRAND ISLAND   CLEAR     50  45  83 N8        30.05R
KANSAS CITY    CLEAR     57  52  83 NW9       29.89R
WICHITA        CLEAR     60  53  77 W7        29.92R
OKLAHOMA CITY  CLEAR     59  49  69 SW7       30.00R
DALLAS         PTCLDY    58  51  78 CALM      30.01S
AMARILLO       CLOUDY    57  38  48 W6        30.14R
DODGE CITY     CLEAR     56  41  57 NW13      30.03R
HAYS           CLEAR     54  39  58 NW9       30.02R
GOODLAND       CLEAR     46  37  71 NW8       30.12R
$$




USA.gov is the U.S. government's official web portal to all federal, state and local government web resources and services.